Flag for Haiti Weather past 2 weeks in Cap-Haïtien, Haiti

Now
72 °F

Passing clouds.


Feels Like: 67 °F
Forecast: 76 / 88 °F
Wind: 7 mph from East

Location: Santiago


UV Index: 7 (High)

Visibility: N/A


Pressure: 29.98 "Hg

Humidity: 94%

Dew point: 70 °F

Location of Cap-HaïtienLocation

Historic Weather in Cap-Haïtien

°F

Cap-Haïtien temperature yesterday

Maximum temperature yesterday: 88 °F (at 2:00 PM)
Minimum temperature yesterday: 70 °F (at 3:00 AM)
Average temperature yesterday: 78 °F

Past Weeks' High & Low Weather Summary

 TemperatureHumidityPressure
High91 °F (Apr 9, 3:00 PM)100% (Apr 7, 3:00 AM)30.12 "Hg (Apr 7, 3:00 AM)
Low68 °F (Apr 13, 4:00 AM)33% (Apr 13, 1:00 PM)29.83 "Hg (Apr 15, 4:00 PM)
Average79 °F75%29.99 "Hg
* Reported Apr 5 4:00 AM — Apr 20 4:00 AM, Cap-Haïtien, Weather by CustomWeather, © 2014

Note: Actual official high and low records may vary slightly from our data, if they occured in-between our weather recording intervals... More about our weather records

Advertising

Historic Weather Conditions — Data for Previous 24 hours

 ConditionsComfort  
Time TempWeatherWind HumidityBarometerVisibility
4:00 AM
Apr 20
72 °FPassing clouds.9 mph94%29.98 "HgN/A
3:00 AM73 °FPassing clouds.10 mph94%29.98 "HgN/A
2:00 AM73 °FPassing clouds.12 mph94%29.98 "HgN/A
1:00 AM75 °FPassing clouds.8 mph89%30.01 "HgN/A
12:00 AM75 °FPassing clouds.8 mph89%30.01 "HgN/A
11:00 PM
Apr 19
75 °FPassing clouds.14 mph89%30.01 "HgN/A
10:00 PM75 °FPassing clouds.12 mph89%30.01 "HgN/A
9:00 PM77 °FPassing clouds.9 mph83%29.98 "HgN/A
8:00 PM79 °FPassing clouds.10 mph79%29.98 "HgN/A
7:00 PM81 °FPartly sunny.14 mph74%29.95 "HgN/A
6:00 PM86 °FPartly sunny.15 mph62%29.92 "HgN/A
5:00 PM88 °FScattered clouds.15 mph55%29.92 "HgN/A
4:00 PM88 °FScattered clouds.16 mph55%29.92 "HgN/A
3:00 PM88 °FScattered clouds.16 mph55%29.95 "HgN/A
2:00 PM88 °FPassing clouds.17 mph55%29.95 "HgN/A
1:00 PM86 °FPassing clouds.16 mph55%30.01 "HgN/A
12:00 PM82 °FPassing clouds.15 mph66%30.01 "HgN/A
11:00 AM82 °FScattered clouds.17 mph66%30.04 "HgN/A
10:00 AM79 °FScattered clouds.16 mph70%30.04 "HgN/A
9:00 AM75 °FScattered clouds.9 mph89%30.04 "HgN/A
8:00 AM72 °FScattered clouds.9 mph94%30.07 "HgN/A
7:00 AM70 °FScattered clouds.6 mph100%30.04 "HgN/A
6:00 AM70 °FPassing clouds.5 mph100%30.04 "HgN/A
5:00 AM72 °FPassing clouds.6 mph94%30.04 "HgN/A
Weather by CustomWeather, © 2014

See weather overview